sat.trackr.live / text

‹ back to catalog

COSMOS 2581

NORAD 62902 · 2025-026A

PAYLOAD ACTIVE UNKNOWN

§ Identity

Operator
Country
CIS
Launch date
2025-02-05
Launch site
PLMSC
Launch vehicle
Mass (kg)
RCS (m²)

External: N2YO · Heavens-Above · Gunter

§ Orbital elements

Epoch: 2026-05-24T17:29:19.419072Z

Period
96.33 min
Inclination
81.9948°
Eccentricity
0.0011227
Mean motion
14.94925952 rev/d
Perigee alt
574.8 km
Apogee alt
590.4 km
Semi-major
6,960.7 km
B*
1.0922e-4
RAAN
98.4316°
Arg perigee
127.9003°
Mean anomaly
232.3234°
Rev number
7,071

§ Raw data

COSMOS 25811 62902U 25026A   26144.72869698  .00001217  00000+0  10922-3 0  99932 62902  81.9948  98.4316 0011227 127.9003 232.3234 14.94925952 70710

JSON: /api/v1/satellites/62902 · /tle

For live sub-satellite position, see the globe view (requires WebGL).

§ Visibility from observer

Set your observer location to see the next 7 days of passes ≥ 10°. The values pass through the URL so the page stays shareable.

No JS? Fill the form by hand. The geolocation button needs JavaScript.

§ Radio — SatNOGS DB

ModeDescriptionDownlinkUplink
FM S-band telemetry 2.284 GHz

1 transmitter · refreshed weekly from db.satnogs.org